Miscellaneous Local Product
Issued by NWS North Platte, NE

Home | Current Version | Previous Version | Text Only | Print | Product List | Glossary On
Versions: 1 2 3 4 5 6 7 8 9 10 11 12 13 14 15 16 17 18 19 20 21 22 23 24 25 26 27 28 29 30 31 32 33 34 35 36 37 38 39 40 41 42 43 44 45 46 47 48 49 50
000
AXUS43 KLBF 281610
MISLBF


WESTERN AND NORTH CENTRAL NEBRASKA HOURLY WEATHER ROUNDUP
NATIONAL WEATHER SERVICE NORTH PLATTE NE
1100 AM CDT SUN SEP 28 2014

***STATIONS NOT REPORTING VARIABLES SUCH AS SKY/WEATHER OR
PRESSURE ARE PROVIDED BY THE NEBRASKA DEPARTMENT OF
ROADS...RAWS...AND APRS NETWORKS...AND ARE NOT UNDER
NATIONAL WEATHER SERVICE QUALITY CONTROL***

...OBSERVATIONS IN AND NEAR THE EASTERN PANHANDLE OF NEBRASKA...

CITY           SKY/WX    TMP DP  RH WIND       PRES   REMARKS
PINE RIDGE     CLOUDY    55  50  83 N12       30.15R
CHADRON        CLOUDY    55  49  80 NE12      30.15R
ALLIANCE       SUNNY     64  53  67 NE14      30.10S
SIDNEY         SUNNY     66  53  63 E10       30.09R
WHITECLAY        N/A     53  47  78 E6          N/A
RUSHVILLE        N/A     58  48  67 E14         N/A
CRESCENT LAKE    N/A     68  57  68 SE6         N/A
LISCO            N/A     74  55  50 E12         N/A
BIG SPRINGS      N/A     62  57  83 SE7         N/A
$$

...OBSERVATIONS IN NORTH CENTRAL NEBRASKA...

CITY           SKY/WX    TMP DP  RH WIND       PRES   REMARKS
VALENTINE      SUNNY     71  55  56 W5        30.08R
THEDFORD       SUNNY     72  58  61 SW10      30.10S
AINSWORTH      SUNNY     69  56  64 SW7       30.09R
O`NEILL        PTSUNNY   69  60  72 S6        30.09R
ORD            SUNNY     71  57  61 S10       30.08R
BROKEN BOW     MOSUNNY   71  58  63 S8        30.09R
SPRINGVIEW       N/A     71  59  66 CALM        N/A
ROSE             N/A     75  63  64 S7          N/A
NEWPORT          N/A     74  60  60 W7          N/A
SARGENT          N/A     72  60  64 CALM        N/A
COMSTOCK         N/A     79  63  57 SW6         N/A
CHAMBERS         N/A     73  60  63 S8          N/A
$$

...OBSERVATIONS IN SOUTHWEST NEBRASKA AND FAR NORTHEAST COLORADO...

CITY           SKY/WX    TMP DP  RH WIND       PRES   REMARKS
WRAY           FAIR      70  56  60 SE12G17   30.05S
IMPERIAL       SUNNY     71  56  58 SE14G22   30.06S
OGALLALA       SUNNY     71  58  65 SE3       30.07F
NORTH PLATTE   SUNNY     74  58  57 S10       30.08S
MCCOOK         SUNNY     76  59  55 S12       30.08R
LEXINGTON      SUNNY     73  59  62 S12       30.10R
PAXTON           N/A     64  59  83 SE6         N/A
SUTHERLAND       N/A     74  60  60 S7          N/A
BRADY            N/A     73  60  64 CALM        N/A
GOTHENBURG       N/A     68  55  62 SE3         N/A
CALLAWAY         N/A     67  60  79 S12         N/A
$$

...SOME WEATHER OBSERVATIONS FROM AROUND THE REGION...

CITY           SKY/WX    TMP DP  RH WIND       PRES   REMARKS
DENVER         MOSUNNY   59  49  69 NW10      30.08S
LARAMIE        CLOUDY    53  46  77 N3        30.17R
CHEYENNE       PTSUNNY   55  48  77 N16       30.14S
SCOTTSBLUFF    MOSUNNY   64  53  67 E10       30.10R
RAPID CITY     CLOUDY    53  47  79 N25G35    30.16R
PIERRE         SUNNY     67  56  67 W7        30.04R
WINNER         FAIR      73  57  57 W6        30.06R
SIOUX FALLS    MOSUNNY   72  59  63 S12       30.10F
OMAHA          MOSUNNY   73  59  61 SE10      30.14S
GRAND ISLAND   MOSUNNY   73  60  63 VRB6      30.11R
KANSAS CITY    MOSUNNY   75  62  64 S6        30.16S
WICHITA        SUNNY     78  58  49 S14       30.13S
HAYS           MOSUNNY   72  55  56 S12       30.11R
LIBERAL        SUNNY     75  57  53 S13       30.13R
GOODLAND       SUNNY     70  57  63 S26       30.06S
$$



USA.gov is the U.S. government's official web portal to all federal, state and local government web resources and services.